Weather in Chernoye Ozero

Russia / Republic of Khakassia     54°41′17″N   89°25′46″E
temp.,
°C
wind,
m/s
gust,
m/s
humid.,
%
clouds,
%
prec.,
mm/h
press.,
hPa
HPBL,
m
23 october, sat
sat2301:00+3wsw61264100 0.0 10251280
04:00+2wsw6136355 0.0 10271297
07:000sw5106594 0.0 1028558
10:00+2sw51453100 0.0 10271548
13:00+4sw7164691 0.0 10251619
16:00+4sw7165450 0.0 10241572
19:00+2sw7156243 0.0 10231086
22:00+3sw71861100 0.0 10211282
24 october, sun
sun2401:00+3sw9197391 0.2 10191327
04:00+3wsw8186947 0.0 10191095
07:00+2wsw81778100 0.0 1020917
10:00+2sw71588100 0.1 10201102
13:00+3sw61682100 0.5 10191321
16:00+4wsw71676100 0.1 10201295
19:00+4wsw7147893 0.1 1021901
22:00+4wsw7147920 0.0 1022988
25 october, mon
mon2501:00+4wsw51184100 0.0 1023865
04:00+4ssw2692100 0.0 1023266
07:00+4ssw3685100 0.0 1023203
10:00+6ssw41073100 0.0 1022578
13:00+8sw61460100 0.0 10181267
16:00+8sw71664100 0.0 10161163
19:00+7sw71468100 0.0 1017730
22:00+7wsw71462100 0.0 1018737
26 october, tue
tue2601:00+6wsw51065100 0.0 1019633
04:00+5ssw1173100 0.0 102118
07:00+4ssw227699 0.0 102259
10:00+5ssw2270100 0.0 1021165
13:00+9sse244999 0.0 1017428
16:00+10sse1144100 0.0 101414
19:00+7ssw2256100 0.0 101211
22:00+5ssw2269100 0.0 101123
27 october, wed
wed2701:00+5ssw3356100 0.0 101146
04:00+7sw41149100 0.0 1011335
07:00+5wsw4860100 0.0 1014192
10:00+6wnw376094 0.0 10171005
13:00+2n3695100 0.2 1021338
16:00+1e1197100 1.1 1023121
19:000ne137895 2.0 1026480
22:00−2ene117590 0.0 102939